User: anonymous   Login
Location: Bats
(43.6587°N, 0.4584°W)
Time: 05:38:20
(UTC+00:00)
Language:

SJ 16-02 - Orbit

View from above orbital plane
View from above orbital plane
View from above satellite
View from above satellite

Ground track
Ground track

The orbit is defined by the following mean orbital elements,

1 41634U          26072.01157616 +.00000000 +00000-0 +11418-3 0 00003
2 41634  75.0013 100.9949 0008674 268.5073  91.5122 14.93239309    07
Epoch (UTC): 13 March 2026 00:16:40
Eccentricity: 0.0008674
inclination: 75.0013°
perigee height: 582 km
apogee height: 594 km
right ascension of ascending node: 100.9949°
argument of perigee: 268.5073°
revolutions per day: 14.93239309
mean anomaly at epoch: 91.5122°

The dashed part of the orbit path shows where the satellite is in the earth's shadow,  

DLR